Location: Lecco
(45.8566°N, 9.3977°E)
Time: 08:08:38
(UTC+02:00)

Altair - Pass Details

Date: 18 August 2020
Orbit: 1501 x 1682 km, 47.2° (Epoch: 25 September)

Event Time Altitude Azimuth Distance (km) Brightness Sun altitude
Rises 01:39:28 0° 224° (SW) 4,867 - -31.1°
Reaches altitude 10° 01:42:43 10° 220° (SW) 3,860 - -31.0°
Exits shadow 01:52:03 56° 149° (SSE) 1,846 7.5 -30.8°
Maximum altitude 01:52:11 56° 146° (SSE) 1,845 7.5 -30.8°
Drops below altitude 10° 02:01:19 10° 72° (ENE) 3,732 9.8 -30.6°
Sets 02:04:23 0° 68° (ENE) 4,696 10.5 -30.5°
